GW4127 Weather Reports


time (UTC)temp
C
wind
direction
speed
KPH
gust
KPH
rain 1hr
cm
rain 24hr
cm
rain mn
cm
humidity
%
barometer
mb
20260507133054 10 301 4.8 12.9 0.03 0.03 0.03 94 1017.6
20260507131609 10 301 3.2 11.3 0.03 0.03 0.03 94 1017.6
20260507130045 10 301 8.0 19.3 0.03 0.03 0.03 93 1017.6
20260507124536 11 301 4.8 19.3 0.00 0.00 0.00 90 1017.8
20260507123025 12 301 6.4 14.5 0.00 0.00 0.00 87 1017.8
20260507121519 12 301 1.6 12.9 0.00 0.00 0.00 86 1017.8
20260507120018 12 301 4.8 16.1 0.00 0.00 0.00 84 1018.0
20260507114604 12 301 3.2 12.9 0.00 0.00 0.00 83 1018.0
20260507113048 12 301 3.2 16.1 0.00 0.00 0.00 84 1018.2
20260507111547 12 301 6.4 14.5 0.00 0.00 0.00 81 1018.2
20260507110035 13 301 9.7 17.7 0.00 0.00 0.00 79 1018.3
20260507104523 13 301 1.6 8.0 0.00 0.00 0.00 80 1018.4
20260507103025 13 301 3.2 12.9 0.00 0.00 0.00 78 1018.5
20260507101507 13 301 3.2 11.3 0.00 0.00 0.00 77 1018.5
20260507100007 13 300 3.2 16.1 0.00 0.00 0.00 75 1018.7
20260507094559 14 301 1.6 19.3 0.00 0.00 0.00 73 1018.7
20260507093046 13 301 0.0 11.3 0.00 0.00 0.00 76 1018.7
20260507091524 12 301 4.8 11.3 0.00 0.00 0.00 80 1018.7
20260507090013 12 301 3.2 9.7 0.00 0.00 0.00 79 1018.6
20260507084557 12 301 1.6 8.0 0.00 0.00 0.00 81 1018.4
20260507083041 10 301 3.2 9.7 0.00 0.00 0.00 88 1018.3
20260507081535 10 301 1.6 16.1 0.00 0.00 0.00 91 1018.4
20260507080019 10 301 1.6 9.7 0.00 0.00 0.00 90 1018.4
20260507074503 10 301 3.2 9.7 0.00 0.00 0.00 88 1018.5
20260507073052 11 301 3.2 9.7 0.00 0.00 0.00 86 1018.3
20260507071559 11 301 3.2 11.3 0.00 0.00 0.00 83 1018.3
20260507070017 10 301 1.6 9.7 0.00 0.00 0.00 82 1018.2
20260507064600 9 301 1.6 9.7 0.00 0.00 0.00 85 1018.1
20260507063056 8 301 3.2 9.7 0.00 0.00 0.00 81 1018.1
20260507061556 8 301 4.8 8.0 0.00 0.00 0.00 80 1017.7
20260507060047 8 301 1.6 8.0 0.00 0.00 0.00 81 1017.5
20260507054518 8 301 3.2 9.7 0.00 0.00 0.00 83 1017.4
20260507053012 7 301 3.2 8.0 0.00 0.00 0.00 90 1017.4
20260507051503 7 301 3.2 8.0 0.00 0.00 0.00 95 1017.3
20260507050002 7 301 3.2 8.0 0.00 0.00 0.00 96 1017.2
20260507044558 7 301 3.2 12.9 0.00 0.00 0.00 97 1017.1
20260507043050 7 301 4.8 9.7 0.00 0.00 0.00 96 1017.1
20260507041534 7 301 4.8 12.9 0.00 0.00 0.00 96 1017.2
20260507040027 7 301 4.8 12.9 0.00 0.00 0.00 96 1017.2
20260507034530 7 301 6.4 12.9 0.00 0.00 0.00 95 1017.1
20260507033014 7 300 6.4 12.9 0.00 0.00 0.00 95 1017.1
20260507031554 7 301 6.4 14.5 0.00 0.00 0.00 94 1017.2
20260507030037 7 301 4.8 12.9 0.00 0.00 0.00 92 1017.2
20260507024536 8 301 3.2 9.7 0.00 0.00 0.00 87 1017.1
20260507023027 8 301 4.8 9.7 0.00 0.00 0.00 80 1017.2
20260507021516 8 301 3.2 8.0 0.00 0.00 0.00 84 1017.2
20260507020007 8 301 3.2 6.4 0.00 0.00 0.00 79 1017.2
20260507014511 8 301 3.2 8.0 0.00 0.00 0.00 84 1017.2
20260507013054 8 301 3.2 8.0 0.00 0.00 0.00 77 1017.4
20260507011540 8 301 3.2 6.4 0.00 0.00 0.00 77 1017.3
20260507010027 9 301 1.6 8.0 0.00 0.00 0.00 77 1017.3
20260507004516 8 301 3.2 8.0 0.00 0.00 0.00 77 1017.7
20260507003006 8 301 3.2 8.0 0.00 0.00 0.00 79 1017.7
20260507001552 8 301 3.2 8.0 0.00 0.00 0.00 79 1017.8
20260507000032 8 301 4.8 9.7 0.00 0.00 0.00 88 1017.8
20260506234519 7 301 3.2 8.0 0.00 0.00 0.00 91 1017.8
20260506233009 8 301 3.2 8.0 0.00 0.00 0.00 94 1018.0
20260506231602 8 301 8.0 12.9 0.00 0.00 0.00 92 1017.9
20260506231501 8 301 6.4 12.9 0.00 0.00 0.00 92 1017.9
20260506230050 8 301 4.8 12.9 0.00 0.03 0.00 87 1017.9
20260506224538 8 301 6.4 11.3 0.00 0.03 0.00 87 1017.8
20260506223026 8 301 4.8 14.5 0.00 0.03 0.00 90 1017.8
20260506221517 8 301 4.8 14.5 0.00 0.03 0.00 87 1017.8
20260506220100 8 301 3.2 12.9 0.00 0.03 0.00 86 1017.7
20260506220020 8 301 3.2 12.9 0.00 0.03 0.03 86 1017.8
20260506214601 8 301 4.8 11.3 0.00 0.03 0.03 86 1017.7
20260506213041 8 301 3.2 11.3 0.00 0.03 0.03 88 1017.6
20260506211529 8 301 4.8 11.3 0.00 0.03 0.03 91 1017.6
20260506210016 8 301 4.8 11.3 0.00 0.03 0.03 91 1017.5
20260506204509 8 301 8.0 16.1 0.00 0.03 0.03 90 1017.5
20260506203057 8 301 4.8 12.9 0.00 0.03 0.03 92 1017.3
20260506201545 8 301 1.6 8.0 0.00 0.03 0.03 92 1017.2
20260506200023 8 301 4.8 9.7 0.00 0.03 0.03 90 1017.0
20260506194522 9 301 0.0 6.4 0.00 0.03 0.03 86 1016.8
20260506193017 9 301 1.6 12.9 0.00 0.03 0.03 84 1016.6
20260506191511 10 301 3.2 12.9 0.00 0.03 0.03 84 1016.4
20260506190057 10 301 3.2 14.5 0.00 0.03 0.03 82 1016.4
20260506184550 11 301 3.2 16.1 0.00 0.03 0.03 80 1016.3
20260506183038 11 301 6.4 14.5 0.00 0.03 0.03 78 1016.1
20260506181525 11 301 6.4 16.1 0.00 0.03 0.03 79 1015.8
20260506180026 12 301 3.2 14.5 0.00 0.03 0.03 77 1015.8
20260506174514 13 301 3.2 9.7 0.00 0.03 0.03 72 1015.8
20260506173000 13 301 4.8 12.9 0.00 0.03 0.03 66 1015.8
20260506171551 13 301 4.8 11.3 0.00 0.03 0.03 63 1015.6
20260506170041 14 301 6.4 12.9 0.00 0.03 0.03 61 1015.6
20260506164533 13 301 4.8 12.9 0.00 0.03 0.03 63 1015.6
20260506163019 14 301 4.8 16.1 0.00 0.03 0.03 63 1015.6
20260506161509 13 301 6.4 14.5 0.00 0.03 0.03 62 1015.6
20260506160057 15 301 4.8 16.1 0.00 0.46 0.03 61 1015.6
20260506154548 15 301 4.8 14.5 0.00 0.46 0.03 62 1015.6
20260506153027 15 301 6.4 19.3 0.00 0.46 0.03 59 1015.5
20260506151517 15 301 4.8 14.5 0.00 0.46 0.03 61 1015.6
20260506150009 14 301 6.4 16.1 0.00 0.84 0.03 62 1015.8
20260506144507 15 301 4.8 16.1 0.00 0.84 0.03 62 1015.8
20260506143047 14 301 6.4 16.1 0.00 0.84 0.03 63 1016.0
20260506141537 13 301 6.4 19.3 0.00 0.84 0.03 61 1016.1
20260506140024 15 301 6.4 19.3 0.00 0.84 0.03 62 1016.2
20260506134515 15 300 8.0 22.5 0.00 0.84 0.03 58 1016.3